Time,TemperatureF,DewpointF,PressureIn,WindDirection,WindDirectionDegrees,WindSpeedMPH,WindSpeedGustMPH,Humidity,HourlyPrecipIn,Conditions,Clouds,dailyrainin,SoftwareType,DateUTC
2013-05-24 00:03:00,72.0,70.0,29.85,SW,221,4.0,7.0,94,0.00,,,0.67,,2013-05-24 04:03:00,
2013-05-24 00:12:00,72.0,70.0,29.85,SW,221,4.0,7.0,94,0.00,,,0.67,,2013-05-24 04:12:00,
2013-05-24 00:23:00,72.0,70.0,29.85,SW,225,4.0,6.0,95,0.00,,,0.67,,2013-05-24 04:23:00,
2013-05-24 00:33:00,72.0,70.0,29.85,SW,217,5.0,6.0,95,0.00,,,0.67,,2013-05-24 04:33:00,
2013-05-24 00:42:00,72.0,70.0,29.85,SW,217,5.0,6.0,95,0.00,,,0.67,,2013-05-24 04:42:00,
2013-05-24 00:53:00,72.0,70.0,29.85,WSW,238,4.0,6.0,95,0.00,,,0.67,,2013-05-24 04:53:00,
2013-05-24 01:02:00,72.0,71.0,29.85,SW,232,4.0,6.0,96,0.00,,,0.67,,2013-05-24 05:02:00,
2013-05-24 01:12:00,72.0,71.0,29.85,SW,232,4.0,6.0,96,0.00,,,0.67,,2013-05-24 05:12:00,
2013-05-24 01:22:00,72.0,71.0,29.85,SW,232,4.0,6.0,96,0.00,,,0.67,,2013-05-24 05:22:00,
2013-05-24 01:32:00,72.0,71.0,29.84,SW,221,5.0,9.0,96,0.00,,,0.67,,2013-05-24 05:32:00,
2013-05-24 01:42:00,72.0,71.0,29.84,SW,221,5.0,9.0,96,0.00,,,0.67,,2013-05-24 05:42:00,
2013-05-24 01:52:00,72.0,71.0,29.83,SW,215,5.0,7.0,96,0.00,,,0.67,,2013-05-24 05:52:00,
2013-05-24 02:02:00,72.0,71.0,29.83,WSW,237,5.0,6.0,96,0.00,,,0.67,,2013-05-24 06:02:00,
2013-05-24 02:12:00,72.0,71.0,29.83,WSW,237,5.0,6.0,96,0.00,,,0.67,,2013-05-24 06:12:00,
2013-05-24 02:21:00,72.0,71.0,29.83,SW,217,5.0,7.0,96,0.00,,,0.67,,2013-05-24 06:21:00,
2013-05-24 02:32:00,72.0,71.0,29.82,SSW,211,2.0,6.0,96,0.00,,,0.67,,2013-05-24 06:32:00,
2013-05-24 02:42:00,72.0,71.0,29.82,SSW,211,2.0,6.0,96,0.00,,,0.67,,2013-05-24 06:42:00,
2013-05-24 02:52:00,72.0,71.0,29.81,SW,232,5.0,7.0,96,0.00,,,0.67,,2013-05-24 06:52:00,
2013-05-24 03:01:00,72.0,71.0,29.80,West,260,0.0,6.0,96,0.00,,,0.67,,2013-05-24 07:01:00,
2013-05-24 03:11:00,72.0,71.0,29.80,West,260,0.0,6.0,96,0.00,,,0.67,,2013-05-24 07:11:00,
2013-05-24 03:22:00,72.0,71.0,29.80,SW,231,3.0,5.0,97,0.00,,,0.67,,2013-05-24 07:22:00,
2013-05-24 03:32:00,72.0,71.0,29.78,WSW,244,4.0,6.0,97,0.00,,,0.67,,2013-05-24 07:32:00,
2013-05-24 03:42:00,72.0,71.0,29.78,WSW,244,4.0,6.0,97,0.00,,,0.67,,2013-05-24 07:42:00,
2013-05-24 03:52:00,72.0,71.0,29.78,WSW,250,0.0,5.0,96,0.00,,,0.67,,2013-05-24 07:52:00,
2013-05-24 04:02:00,71.0,70.0,29.78,WSW,243,0.0,1.0,97,0.00,,,0.67,,2013-05-24 08:02:00,
2013-05-24 04:11:00,71.0,70.0,29.78,WSW,243,0.0,1.0,97,0.00,,,0.67,,2013-05-24 08:11:00,
2013-05-24 04:22:00,72.0,71.0,29.78,SW,231,3.0,5.0,97,0.00,,,0.67,,2013-05-24 08:22:00,
2013-05-24 04:33:00,72.0,71.0,29.78,WSW,241,2.0,4.0,97,0.00,,,0.67,,2013-05-24 08:33:00,
2013-05-24 04:42:00,72.0,71.0,29.78,WSW,241,2.0,4.0,97,0.00,,,0.67,,2013-05-24 08:42:00,
2013-05-24 04:52:00,71.0,70.0,29.78,WSW,256,0.0,1.0,97,0.00,,,0.67,,2013-05-24 08:52:00,
2013-05-24 05:02:00,71.0,70.0,29.78,West,265,0.0,1.0,97,0.00,,,0.67,,2013-05-24 09:02:00,
2013-05-24 05:11:00,71.0,70.0,29.78,West,265,0.0,1.0,97,0.00,,,0.67,,2013-05-24 09:11:00,
2013-05-24 05:22:00,71.0,70.0,29.80,West,266,0.0,0.0,97,0.00,,,0.67,,2013-05-24 09:22:00,
2013-05-24 05:32:00,71.0,70.0,29.80,SW,232,0.0,1.0,97,0.00,,,0.67,,2013-05-24 09:32:00,
2013-05-24 05:42:00,71.0,70.0,29.80,SW,232,0.0,1.0,97,0.00,,,0.67,,2013-05-24 09:42:00,
2013-05-24 05:53:00,70.0,69.0,29.80,SW,228,0.0,1.0,97,0.00,,,0.67,,2013-05-24 09:53:00,
2013-05-24 06:03:00,70.0,69.0,29.82,SSW,195,0.0,1.0,97,0.00,,,0.67,,2013-05-24 10:03:00,
2013-05-24 06:12:00,70.0,69.0,29.82,SSW,195,0.0,1.0,97,0.00,,,0.67,,2013-05-24 10:12:00,
2013-05-24 06:22:00,70.0,69.0,29.83,WNW,285,0.0,2.0,97,0.00,,,0.67,,2013-05-24 10:22:00,
2013-05-24 06:33:00,69.0,68.0,29.83,WNW,285,0.0,2.0,97,0.00,,,0.67,,2013-05-24 10:33:00,
2013-05-24 06:42:00,69.0,68.0,29.83,WNW,285,0.0,2.0,97,0.00,,,0.67,,2013-05-24 10:42:00,
2013-05-24 06:53:00,69.0,68.0,29.83,ENE,58,0.0,2.0,97,0.00,,,0.67,,2013-05-24 10:53:00,
2013-05-24 07:02:00,69.0,68.0,29.83,ENE,58,0.0,2.0,97,0.00,,,0.67,,2013-05-24 11:02:00,
2013-05-24 07:12:00,69.0,68.0,29.83,ENE,58,0.0,2.0,97,0.00,,,0.67,,2013-05-24 11:12:00,
2013-05-24 07:22:00,69.0,68.0,29.83,SSW,198,0.0,0.0,97,0.00,,,0.66,,2013-05-24 11:22:00,
2013-05-24 07:32:00,69.0,68.0,29.83,NNE,30,0.0,1.0,97,0.00,,,0.66,,2013-05-24 11:32:00,
2013-05-24 07:42:00,69.0,68.0,29.83,NNE,30,0.0,1.0,97,0.00,,,0.66,,2013-05-24 11:42:00,
2013-05-24 07:52:00,69.0,68.0,29.82,WSW,244,0.0,1.0,97,0.00,,,0.66,,2013-05-24 11:52:00,
2013-05-24 08:02:00,70.0,69.0,29.83,SE,125,0.0,2.0,96,0.00,,,0.66,,2013-05-24 12:02:00,
2013-05-24 08:11:00,70.0,69.0,29.83,SE,125,0.0,2.0,96,0.00,,,0.66,,2013-05-24 12:11:00,
2013-05-24 08:22:00,71.0,69.0,29.82,West,260,0.0,2.0,95,0.00,,,0.47,,2013-05-24 12:22:00,
2013-05-24 08:32:00,73.0,71.0,29.83,NW,308,0.0,2.0,94,0.00,,,0.47,,2013-05-24 12:32:00,
2013-05-24 08:42:00,73.0,71.0,29.83,NW,308,0.0,2.0,94,0.00,,,0.47,,2013-05-24 12:42:00,
2013-05-24 08:52:00,73.0,70.0,29.83,West,277,0.0,2.0,90,0.00,,,0.47,,2013-05-24 12:52:00,
2013-05-24 09:02:00,73.0,69.0,29.83,West,281,0.0,3.0,88,0.00,,,0.47,,2013-05-24 13:02:00,
2013-05-24 09:11:00,73.0,69.0,29.83,West,281,0.0,3.0,88,0.00,,,0.47,,2013-05-24 13:11:00,
2013-05-24 09:21:00,74.0,70.0,29.83,WSW,257,0.0,3.0,86,0.00,,,0.39,,2013-05-24 13:21:00,
2013-05-24 09:32:00,75.0,69.0,29.84,WNW,292,0.0,2.0,83,0.00,,,0.39,,2013-05-24 13:32:00,
2013-05-24 09:42:00,75.0,69.0,29.84,WNW,292,0.0,2.0,83,0.00,,,0.39,,2013-05-24 13:42:00,
2013-05-24 09:52:00,75.0,69.0,29.84,SSE,152,0.0,2.0,82,0.00,,,0.39,,2013-05-24 13:52:00,
2013-05-24 10:01:00,75.0,69.0,29.84,SSE,152,0.0,2.0,82,0.00,,,0.39,,2013-05-24 14:01:00,
2013-05-24 10:11:00,75.0,69.0,29.84,SSE,152,0.0,2.0,82,0.00,,,0.39,,2013-05-24 14:11:00,
2013-05-24 10:21:00,76.0,69.0,29.85,NW,323,0.0,3.0,78,0.00,,,0.39,,2013-05-24 14:21:00,
2013-05-24 10:32:00,77.0,69.0,29.84,West,278,1.0,3.0,77,0.00,,,0.37,,2013-05-24 14:32:00,
2013-05-24 10:42:00,77.0,69.0,29.84,West,278,1.0,3.0,77,0.00,,,0.37,,2013-05-24 14:42:00,
2013-05-24 10:52:00,78.0,69.0,29.84,WNW,288,0.0,3.0,75,0.00,,,0.37,,2013-05-24 14:52:00,
2013-05-24 11:02:00,78.0,69.0,29.85,North,360,1.0,4.0,73,0.00,,,0.37,,2013-05-24 15:02:00,
2013-05-24 11:11:00,78.0,69.0,29.85,North,360,1.0,4.0,73,0.00,,,0.37,,2013-05-24 15:11:00,
2013-05-24 11:22:00,77.0,67.0,29.85,West,270,0.0,2.0,72,0.00,,,0.37,,2013-05-24 15:22:00,
2013-05-24 11:33:00,78.0,69.0,29.85,NNE,23,1.0,3.0,73,0.00,,,0.17,,2013-05-24 15:33:00,
2013-05-24 11:43:00,78.0,69.0,29.85,NNE,23,1.0,3.0,73,0.00,,,0.17,,2013-05-24 15:43:00,
2013-05-24 11:52:00,78.0,69.0,29.86,North,6,0.0,2.0,74,0.00,,,0.17,,2013-05-24 15:52:00,
2013-05-24 12:03:00,78.0,68.0,29.86,WNW,288,1.0,5.0,71,0.00,,,0.17,,2013-05-24 16:03:00,
2013-05-24 12:13:00,78.0,68.0,29.86,WNW,288,1.0,5.0,71,0.00,,,0.17,,2013-05-24 16:13:00,
2013-05-24 12:22:00,78.0,68.0,29.86,West,263,1.0,5.0,71,0.00,,,0.17,,2013-05-24 16:22:00,
2013-05-24 12:32:00,79.0,68.0,29.86,WNW,293,1.0,8.0,68,0.00,,,0.00,,2013-05-24 16:32:00,
2013-05-24 12:42:00,79.0,68.0,29.86,WNW,293,1.0,8.0,68,0.00,,,0.00,,2013-05-24 16:42:00,
2013-05-24 12:52:00,78.0,67.0,29.86,NW,311,1.0,4.0,68,0.00,,,0.00,,2013-05-24 16:52:00,
2013-05-24 13:02:00,77.0,67.0,29.87,NE,45,0.0,4.0,72,0.00,,,0.00,,2013-05-24 17:02:00,
2013-05-24 13:12:00,77.0,67.0,29.87,NE,45,0.0,4.0,72,0.00,,,0.00,,2013-05-24 17:12:00,
2013-05-24 13:22:00,77.0,67.0,29.86,NE,53,0.0,4.0,71,0.00,,,0.00,,2013-05-24 17:22:00,
2013-05-24 13:32:00,78.0,67.0,29.87,SSE,165,1.0,5.0,68,0.00,,,0.00,,2013-05-24 17:32:00,
2013-05-24 13:42:00,78.0,67.0,29.87,SSE,165,1.0,5.0,68,0.00,,,0.00,,2013-05-24 17:42:00,
2013-05-24 13:52:00,79.0,67.0,29.87,NE,53,2.0,7.0,67,0.00,,,0.00,,2013-05-24 17:52:00,
2013-05-24 14:01:00,78.0,66.0,29.87,SE,131,0.0,4.0,67,0.00,,,0.00,,2013-05-24 18:01:00,
2013-05-24 14:12:00,78.0,66.0,29.87,SE,131,0.0,4.0,67,0.00,,,0.00,,2013-05-24 18:12:00,
2013-05-24 14:22:00,77.0,65.0,29.88,NNE,18,0.0,6.0,66,0.00,,,0.00,,2013-05-24 18:22:00,
2013-05-24 14:32:00,77.0,65.0,29.88,NW,320,1.0,5.0,67,0.00,,,0.00,,2013-05-24 18:32:00,
2013-05-24 14:42:00,77.0,65.0,29.88,NW,320,1.0,5.0,67,0.00,,,0.00,,2013-05-24 18:42:00,
2013-05-24 14:52:00,76.0,63.0,29.88,SW,221,1.0,8.0,64,0.00,,,0.00,,2013-05-24 18:52:00,
2013-05-24 15:01:00,77.0,65.0,29.89,NW,307,2.0,8.0,66,0.00,,,0.00,,2013-05-24 19:01:00,
2013-05-24 15:11:00,77.0,65.0,29.89,NW,307,2.0,8.0,66,0.00,,,0.00,,2013-05-24 19:11:00,
2013-05-24 15:21:00,77.0,64.0,29.89,WNW,303,2.0,6.0,64,0.00,,,0.00,,2013-05-24 19:21:00,
2013-05-24 15:32:00,78.0,65.0,29.90,SE,143,0.0,5.0,65,0.00,,,0.00,,2013-05-24 19:32:00,
2013-05-24 15:42:00,78.0,65.0,29.90,SE,143,0.0,5.0,65,0.00,,,0.00,,2013-05-24 19:42:00,
2013-05-24 15:52:00,77.0,64.0,29.90,North,354,0.0,5.0,65,0.00,,,0.00,,2013-05-24 19:52:00,
2013-05-24 16:02:00,76.0,63.0,29.90,West,276,2.0,5.0,65,0.00,,,0.00,,2013-05-24 20:02:00,
2013-05-24 16:12:00,76.0,63.0,29.90,West,276,2.0,5.0,65,0.00,,,0.00,,2013-05-24 20:12:00,
2013-05-24 16:22:00,76.0,63.0,29.91,WNW,283,1.0,4.0,65,0.00,,,0.00,,2013-05-24 20:22:00,
2013-05-24 16:32:00,77.0,64.0,29.91,NW,326,0.0,6.0,64,0.00,,,0.00,,2013-05-24 20:32:00,
2013-05-24 16:42:00,77.0,64.0,29.91,NW,326,0.0,6.0,64,0.00,,,0.00,,2013-05-24 20:42:00,
2013-05-24 16:52:00,75.0,62.0,29.91,NW,316,2.0,6.0,65,0.00,,,0.00,,2013-05-24 20:52:00,
2013-05-24 17:01:00,72.0,61.0,29.93,NNW,338,3.0,11.0,69,0.00,,,0.00,,2013-05-24 21:01:00,
2013-05-24 17:12:00,72.0,61.0,29.93,NNW,338,3.0,11.0,69,0.00,,,0.00,,2013-05-24 21:12:00,
2013-05-24 17:21:00,69.0,60.0,29.94,NW,307,2.0,9.0,74,0.00,,,0.00,,2013-05-24 21:21:00,
2013-05-24 17:33:00,68.0,59.0,29.94,SW,236,2.0,8.0,73,0.00,,,0.00,,2013-05-24 21:33:00,
2013-05-24 17:43:00,68.0,59.0,29.94,SW,236,2.0,8.0,73,0.00,,,0.00,,2013-05-24 21:43:00,
2013-05-24 17:53:00,68.0,59.0,29.95,NW,322,1.0,10.0,72,0.00,,,0.00,,2013-05-24 21:53:00,
2013-05-24 18:03:00,69.0,60.0,29.96,WNW,290,1.0,8.0,72,0.00,,,0.00,,2013-05-24 22:03:00,
2013-05-24 18:12:00,69.0,60.0,29.96,WNW,290,1.0,8.0,72,0.00,,,0.00,,2013-05-24 22:12:00,
2013-05-24 18:22:00,70.0,60.0,29.96,SSE,158,1.0,4.0,70,0.00,,,0.00,,2013-05-24 22:22:00,
2013-05-24 18:33:00,69.0,58.0,29.97,WNW,295,2.0,6.0,68,0.00,,,0.00,,2013-05-24 22:33:00,
2013-05-24 18:42:00,69.0,58.0,29.97,WNW,295,2.0,6.0,68,0.00,,,0.00,,2013-05-24 22:42:00,
2013-05-24 18:52:00,70.0,58.0,29.97,North,1,1.0,4.0,66,0.00,,,0.00,,2013-05-24 22:52:00,
2013-05-24 19:02:00,70.0,57.0,29.98,NW,317,1.0,7.0,64,0.00,,,0.00,,2013-05-24 23:02:00,
2013-05-24 19:11:00,70.0,57.0,29.98,NW,317,1.0,7.0,64,0.00,,,0.00,,2013-05-24 23:11:00,
2013-05-24 19:22:00,69.0,55.0,29.98,WNW,285,1.0,6.0,62,0.00,,,0.00,,2013-05-24 23:22:00,
2013-05-24 19:32:00,69.0,55.0,29.99,NE,46,2.0,5.0,61,0.00,,,0.00,,2013-05-24 23:32:00,
2013-05-24 19:42:00,69.0,55.0,29.99,NE,46,2.0,5.0,61,0.00,,,0.00,,2013-05-24 23:42:00,
2013-05-24 19:52:00,69.0,55.0,30.00,WNW,300,0.0,5.0,62,0.00,,,0.00,,2013-05-24 23:52:00,
2013-05-24 20:01:00,68.0,54.0,30.01,ENE,61,0.0,3.0,62,0.00,,,0.00,,2013-05-25 00:01:00,
2013-05-24 20:12:00,68.0,54.0,30.01,ENE,61,0.0,3.0,62,0.00,,,0.00,,2013-05-25 00:12:00,
2013-05-24 20:22:00,67.0,53.0,30.02,NW,323,0.0,3.0,61,0.00,,,0.00,,2013-05-25 00:22:00,
2013-05-24 20:32:00,66.0,52.0,30.03,NNE,13,0.0,2.0,61,0.00,,,0.00,,2013-05-25 00:32:00,
2013-05-24 20:42:00,66.0,52.0,30.03,NNE,13,0.0,2.0,61,0.00,,,0.00,,2013-05-25 00:42:00,
2013-05-24 20:52:00,65.0,52.0,30.04,NE,40,0.0,2.0,62,0.00,,,0.00,,2013-05-25 00:52:00,
2013-05-24 21:01:00,64.0,51.0,30.05,WNW,300,0.0,2.0,62,0.00,,,0.00,,2013-05-25 01:01:00,
2013-05-24 21:11:00,64.0,51.0,30.05,WNW,300,0.0,2.0,62,0.00,,,0.00,,2013-05-25 01:11:00,
2013-05-24 21:22:00,64.0,52.0,30.05,NNW,330,0.0,2.0,64,0.00,,,0.00,,2013-05-25 01:22:00,
2013-05-24 21:32:00,63.0,50.0,30.06,WNW,302,1.0,2.0,62,0.00,,,0.00,,2013-05-25 01:32:00,
2013-05-24 21:42:00,63.0,50.0,30.06,WNW,302,1.0,2.0,62,0.00,,,0.00,,2013-05-25 01:42:00,
2013-05-24 21:52:00,63.0,50.0,30.08,NW,309,0.0,1.0,63,0.00,,,0.00,,2013-05-25 01:52:00,
2013-05-24 22:02:00,62.0,49.0,30.09,NW,312,0.0,1.0,63,0.00,,,0.00,,2013-05-25 02:02:00,
2013-05-24 22:12:00,62.0,49.0,30.09,NW,312,0.0,1.0,63,0.00,,,0.00,,2013-05-25 02:12:00,
2013-05-24 22:21:00,62.0,49.0,30.09,NW,312,0.0,1.0,63,0.00,,,0.00,,2013-05-25 02:21:00,
2013-05-24 22:32:00,61.0,50.0,30.10,WNW,291,0.0,3.0,67,0.00,,,0.00,,2013-05-25 02:32:00,
2013-05-24 22:42:00,61.0,50.0,30.10,WNW,291,0.0,3.0,67,0.00,,,0.00,,2013-05-25 02:42:00,
2013-05-24 22:52:00,60.0,49.0,30.11,NW,307,0.0,2.0,67,0.00,,,0.00,,2013-05-25 02:52:00,
2013-05-24 23:02:00,60.0,49.0,30.12,NNW,332,0.0,2.0,68,0.00,,,0.00,,2013-05-25 03:02:00,
2013-05-24 23:11:00,60.0,49.0,30.12,NNW,332,0.0,2.0,68,0.00,,,0.00,,2013-05-25 03:11:00,
2013-05-24 23:22:00,60.0,50.0,30.12,NW,317,0.0,2.0,69,0.00,,,0.00,,2013-05-25 03:22:00,
2013-05-24 23:33:00,59.0,48.0,30.13,WNW,284,0.0,1.0,68,0.00,,,0.00,,2013-05-25 03:33:00,
2013-05-24 23:43:00,59.0,48.0,30.13,WNW,284,0.0,1.0,68,0.00,,,0.00,,2013-05-25 03:43:00,
2013-05-24 23:53:00,59.0,48.0,30.13,WNW,292,0.0,1.0,68,0.00,,,0.00,,2013-05-25 03:53:00,